Vertical_Velocity
1 2 -3 17 8 6 12 11 14 9 5 -0 3 6 5 1 -1 2 -2 -0 -3 0
-0 5 8 6 2 13 8 9 8 9 7 7 3 5 8 -0 1 -4 -2 2 1 -2
12 -2 5 3 10 9 11 6 6 7 6 7 3 3 -0 1 0 -5 -1 -1 -1 2
16 13 15 16 6 9 6 6 3 2 5 5 -1 -0 1 2 -2 -2 -1 1 -2 -1
2 -1 -3 -2 -1 -3 2 2 0 -0 2 -2 -0 0 -3 -5 -2 -3 -4 1 1 3
4 3 -0 -4 -7 -3 -5 -2 -4 -1 -4 -1 -1 1 -2 0 -1 2 1 1 -2 2
-1 1 -1 -5 -5 -1 -1 1 3 3 4 4 2 -0 -3 -1 0 2 2 -1 0 -1
-3 -1 -0 0 2 1 3 2 2 -1 -0 -4 -5 -5 -3 -5 -5 -5 -1 -3 1 -1
1 2 -1 -0 1 -1 1 -1 1 1 -3 -2 -2 1 -2 -3 -3 -3 -3 -1 -4 -5
2 0 -1 1 0 0 -3 -0 1 -1 -1 2 1 -1 -0 0 3 -0 0 1 1 -0
3 1 1 1 0 -1 -0 2 2 1 1 2 2 1 2 2 1 1 1 -1 2 2
-2 1 0 0 -1 -1 -2 1 2 3 1 -2 7 1 -1 -0 -2 0 3 2 2 1
2 1 -0 1 2 0 -1 -0 -4 1 -3 -1 3 5 1 -3 -2 0 2 6 8 5
2 1 -1 1 1 2 2 1 6 6 10 8 -1 6 12 5 -1 2 5 8 14 12
Height
5676 5680 5683 5689 5694 5696 5698 5701 5704 5708 5712 5714 5718 5721 5724 5727 5729 5732 5734 5735 5737 5737
5671 5675 5680 5682 5687 5690 5692 5694 5698 5701 5705 5708 5712 5715 5719 5720 5722 5722 5724 5727 5727 5726
5667 5671 5676 5680 5683 5685 5687 5690 5694 5698 5701 5704 5707 5709 5711 5711 5714 5714 5715 5715 5715 5715
5667 5669 5674 5677 5681 5684 5687 5689 5691 5694 5697 5699 5700 5702 5704 5705 5705 5707 5706 5705 5706 5706
5666 5671 5673 5675 5677 5680 5683 5685 5688 5691 5693 5695 5696 5696 5698 5697 5698 5698 5697 5696 5696 5696
5668 5669 5671 5673 5676 5679 5680 5682 5683 5685 5687 5688 5689 5689 5689 5688 5688 5688 5689 5688 5687 5687
5666 5668 5670 5672 5674 5674 5676 5677 5679 5680 5680 5680 5679 5679 5679 5679 5678 5678 5677 5675 5674 5673
5666 5667 5668 5669 5670 5672 5672 5673 5672 5672 5672 5672 5671 5670 5671 5670 5668 5666 5664 5662 5660 5658
5661 5663 5663 5664 5666 5667 5667 5667 5666 5664 5664 5662 5659 5658 5657 5655 5654 5652 5652 5650 5647 5645
5659 5660 5661 5660 5660 5660 5660 5658 5656 5654 5652 5649 5647 5644 5642 5638 5637 5635 5632 5630 5628 5626
5653 5653 5653 5652 5651 5648 5646 5644 5642 5640 5637 5634 5630 5626 5623 5620 5618 5616 5611 5607 5604 5603
5646 5645 5642 5640 5639 5637 5634 5630 5627 5624 5621 5617 5612 5607 5603 5599 5596 5592 5589 5584 5580 5578
5636 5635 5633 5629 5626 5624 5620 5617 5611 5607 5602 5596 5593 5585 5577 5570 5566 5563 5560 5557 5553 5550
5626 5623 5620 5617 5613 5610 5606 5599 5591 5588 5582 5575 5567 5558 5549 5541 5535 5531 5529 5526 5523 5520